Retour au catalogue

DELTA 1 DEB

ActifLEO
NORAD 10478·DEBRIS·🇺🇸 United States

Lancé Jul 14, 1977 depuis Cape Canaveral Space Force Station

Loading…

Prochains Passages (prochaines 24 heures)

TLE

FraisSource: Space-Track

Époque: Sep 14, 2026, 13:27 UTC

1 10478U 77065EL  26257.56060297  .00002839  00000-0  32748-3 0  9991
2 10478  29.2549  72.1404 0422040 274.1595  81.0878 14.35169847450498

Suivez DELTA 1 DEB en temps réel avec AllMySat

Download on the App Store